Showing default

SDX01, 62459

Orbit data source: Space-Track

SDX01, 62459 is a payload satellite owned by ISRO (IN) in LEO that was launched on Mon, 30 Dec 2024 UTC via a PSLV launch vehicle from the Sirharikota (SRI). Payload-class satellites include a variety of spacecraft equipped with specific instruments for various scientific and technological missions. These include communications satellites like Starlink; space stations such as the ISS; scientific satellites like the Hubble; Earth observation satellites from companies like Planet Labs, Umbra, and HawkEye 360; GPS; miniature CubeSats for education and research; and military/defense satellites.

Loading next visibility...
Identifier
62459, 2024-253A
Orbit
LEO
Last TLE update
9 hours ago
Origin
Manufacturer
ISRO
Mission
Operational Civil Technology
Bus & Motor
SPADEX, Unknown motor
Mass
220 kg wet, ~180 kg dry
Launch date (UTC)
2024-12-30 (7 months ago)
Launch vehicle
PSLV
Launch site
Sirharikota (SRI)
Object type
Payload
Rocket body
Debris
Shape & HBR
Box + 2 Pan, 1.3 m
Radar Cross Section
0.901 m², Large (>1 m²)

Expand to show TLE details & history

TLE from 9 hours ago
0 SDX01
1 62459U 24253A   25199.60109454  .00018670  00000-0  46697-3 0  9994
2 62459  54.9979  81.0426 0009908  76.6655 283.5478 15.40169108 30727
Epoch: 2025-07-18T14:25Z
TLE epoch observation values (Epoch: 2025-07-18T14:25:34.568Z)
Latitude
-0.00001°
Longitude
-72.00165°
Altitude
445.132 km
Speed
7.647 km/s
True Right ascension
05h 24m 10s
True Declination
0° 00' 00"
Sunlit
Object was in daylight at epoch
Visualization orbit readout
Latitude
-50.72618°
Longitude
-132.08885°
Altitude
469.035 km
Speed
7.628 km/s
Apparent Right ascension
00h 47m 37s
Apparent Declination
-45° 38' 51"
Sunlit
Object is in daylight
Visualization observer readout
Local Sidereal Time
12:15:33
Azimuth
223.077° SW
Elevation
-81.795°
Doppler factor
1
Orbital elements
Apogee altitude
452.333 km
Perigee altitude
438.811 km
Semi-major axis
6,823.709 km
Eccentricity
0.00099
Inclination
54.9979°
RAAN
81.0426°
Arg. of periapsis
76.6655°
True anomaly
283.43739°
Mean anomaly
283.5478°
Eccentric anomaly
283.4926°
Mean motion
3.85046 °/min
Orbital period
93.5 mins
BSTAR
0.00046697
Loading maneuver chart data...
Loading SW <> Apogee altitude chart data...
Loading historical data...
Loading historical data...
Loading historical data...
Loading historical data...
Loading historical data...
Loading historical data...
Loading historical data...
Other satellites on launch #253 in the year 2024 (2024-12-30 UTC)
|